TimeCST,TemperatureF,Dew PointF,Humidity,Sea Level PressureIn,VisibilityMPH,Wind Direction,Wind SpeedMPH,Gust SpeedMPH,PrecipitationIn,Events,Conditions,WindDirDegrees,DateUTC
12:53 AM,36.0,26.1,67,29.98,10.0,South,9.2,-,N/A,,Clear,190,2013-01-08 06:53:00
1:53 AM,34.0,26.1,73,29.98,10.0,South,6.9,-,N/A,,Clear,180,2013-01-08 07:53:00
2:53 AM,34.0,26.1,73,29.98,10.0,South,8.1,-,N/A,,Clear,190,2013-01-08 08:53:00
3:53 AM,34.0,26.1,73,29.96,10.0,South,8.1,-,N/A,,Clear,180,2013-01-08 09:53:00
4:53 AM,36.0,26.1,67,29.95,10.0,South,13.8,-,N/A,,Clear,180,2013-01-08 10:53:00
5:53 AM,35.6,26.6,70,29.92,10.0,South,8.1,-,N/A,,Clear,180,2013-01-08 11:53:00
6:53 AM,35.1,26.1,70,29.94,10.0,South,11.5,-,N/A,,Clear,180,2013-01-08 12:53:00
7:53 AM,34.0,27.0,75,29.93,8.0,South,11.5,-,N/A,,Clear,180,2013-01-08 13:53:00
8:53 AM,37.0,28.0,70,29.94,8.0,South,18.4,27.6,0.00,Snow,Light Snow,190,2013-01-08 14:53:00
9:53 AM,39.9,28.9,65,29.97,10.0,SSW,13.8,-,N/A,,Clear,210,2013-01-08 15:53:00
10:53 AM,46.0,30.0,54,29.97,10.0,SW,16.1,20.7,N/A,,Clear,230,2013-01-08 16:53:00
11:53 AM,48.9,30.0,48,29.95,10.0,SW,20.7,28.8,N/A,,Clear,220,2013-01-08 17:53:00
12:53 PM,52.0,30.0,43,29.92,10.0,SSW,18.4,-,N/A,,Clear,210,2013-01-08 18:53:00
1:53 PM,54.0,30.0,40,29.93,10.0,WSW,16.1,-,N/A,,Clear,240,2013-01-08 19:53:00
2:53 PM,52.0,30.9,45,29.94,10.0,West,11.5,-,N/A,,Clear,260,2013-01-08 20:53:00
3:53 PM,52.0,30.9,45,29.99,10.0,WNW,11.5,-,N/A,,Clear,290,2013-01-08 21:53:00
4:53 PM,46.9,30.9,54,30.03,10.0,WNW,9.2,-,N/A,,Clear,290,2013-01-08 22:53:00
5:53 PM,37.9,30.0,73,30.07,10.0,West,5.8,-,N/A,,Clear,280,2013-01-08 23:53:00
6:53 PM,35.1,28.0,76,30.10,10.0,West,6.9,-,N/A,,Clear,280,2013-01-09 00:53:00
7:53 PM,33.1,28.0,82,30.13,10.0,West,6.9,-,N/A,,Clear,280,2013-01-09 01:53:00
8:53 PM,33.1,28.0,82,30.15,10.0,Calm,Calm,-,N/A,,Clear,0,2013-01-09 02:53:00
9:53 PM,33.1,27.0,78,30.18,10.0,NNW,4.6,-,N/A,,Clear,330,2013-01-09 03:53:00
10:53 PM,32.0,26.6,80,30.18,10.0,Calm,Calm,-,N/A,,Clear,0,2013-01-09 04:53:00
11:53 PM,30.0,26.1,85,30.23,10.0,Calm,Calm,-,N/A,,Clear,0,2013-01-09 05:53:00